Hourly Data Report for September 07, 2017

All times are specified in Local Standard Time (LST). Add 1 hour to adjust for Daylight Saving Time where and when it is observed.

GRISE FIORD CLIMATE
NUNAVUT

76°25'22.040" N
82°54'08.020" W
44.50 m
2402351
71971
NGC

Download Data

Hourly Data (September 2017)
Hourly Data Report for September 7, 2017
Temp Definition
°C
Dew Point Temp Definition
°C
Rel Hum Definition
%
Wind Dir Definition
10's deg

Wind Spd Definition
km/h
Visibility Definition
km
Stn Press Definition
kPa
Hmdx Definition


Wind Chill Definition


Weather Definition


TIME
00:00 -3.5 -5.5 86 24 21   100.46   -10 LegendNANA
01:00 -4.3 -5.5 91 24 9   100.49   -8 LegendNANA
02:00 -4.6 -5.4 94 14 2   100.49   -5 LegendNANA
03:00 -4.4 -5.8 89 13 4   100.51   -6 LegendNANA
04:00 -4.4 -5.3 93 19 2   100.53   -5 LegendNANA
05:00 -5.0 -5.8 94 6 3   100.53   -6 LegendNANA
06:00 -5.8 -7.2 90 8 3   100.50   -7 LegendNANA
07:00 -4.7 -6.5 87 1 3   100.48   -6 LegendNANA
08:00 -4.1 -7.1 80 18 3   100.46   -5 LegendNANA
09:00 -3.2 -7.1 75 9 19   100.41   -9 LegendNANA
10:00 -2.8 -6.8 74 9 32   100.35   -10 LegendNANA
11:00 -2.6 -6.6 74 9 34   100.32   -10 LegendNANA
12:00 -2.5 -5.9 77 10 39   100.29   -11 LegendNANA
13:00 -2.4 -5.2 81 8 49   100.21   -11 LegendNANA
14:00 -1.8 -5.8 74 9 32   100.25   -9 LegendNANA
15:00 -1.5 -5.9 72 9 46   100.16   -10 LegendNANA
16:00 -1.5 -5.7 73 10 32   100.21   -9 LegendNANA
17:00 -2.1 -4.8 82 6 26   100.21   -9 LegendNANA
18:00 -1.8 -4.4 83 6 29   100.18   -9 LegendNANA
19:00 -0.5 -4.5 75 9 28   100.15   -7 LegendNANA
20:00 -0.4 -5.5 68 11 27   100.09   -7 LegendNANA
21:00 -0.8 -4.7 75 10 21   100.07   -6 LegendNANA
22:00 -0.4 -4.1 76 11 32   100.00   -7 LegendNANA
23:00 -0.2 -4.0 76 8 29   99.96   -7 LegendNANA

Notes on Data Quality.

Legend

  • E = Estimated
  • M = Missing
  • NA = Not Available
  • ‡ = Partner data that is not subject to review by the National Climate Archives
Date modified: